Watford City, ND

6:49 PM CST on January 22, 2017 (GMT -0600)
Watford City

Weather History for KS25 - September, 2013

Change the Weather History Date:

Monday, September 30, 2013

  Actual Average (KISN) Record (KISN)
Temperature  
Mean Temperature 57 °F -  
Max Temperature 75 °F 67 °F 92 °F (1963)
Min Temperature 39 °F 38 °F 15 °F (2003)
Degree Days  
Heating Degree Days 8    
Growing Degree Days 7 (Base 50)    
Moisture  
Dew Point 40 °F    
Average Humidity 64    
Maximum Humidity 93    
Minimum Humidity 29    
Precipitation  
Precipitation 0.01 in - - ()
Sea Level Pressure  
Sea Level Pressure 29.53 in    
Wind  
Wind Speed 8 mph (SW)    
Max Wind Speed 32 mph    
Max Gust Speed 43 mph    
Visibility 10 miles    
Events Rain    
Averages and records for this station are not official NWS values.
T = Trace of Precipitation, MM = Missing Value Source: NWS Daily Summary

Daily Weather History Graph

Daily Weather History Graph

Search for Another Location

Airport or City:

Trip Planner

Search our weather history database for the weather conditions in past years. The results will help you decide how hot, cold, wet, or windy it might be!

Date:

Astronomy

Sep. 30, 2013 Rise Set
Actual Time 7:51 AM CDT 7:33 PM CDT
Civil Twilight 7:20 AM CDT 8:04 PM CDT
Nautical Twilight 6:44 AM CDT 8:40 PM CDT
Astronomical Twilight 6:07 AM CDT 9:16 PM CDT
Moon 3:14 AM CDT (9/30) 5:19 PM CDT (9/30)
Length of Visible Light 12h 44m
Length of Day
11h 42m
Waning Crescent, 19% of the Moon is Illuminated
Sep 30
Waning Crescent
Oct 4
New
Oct 11
First Quarter
Oct 18
Full
Oct 26
Last Quarter

Hourly Weather History & Observations

Time (CDT) Temp. Windchill Dew Point Humidity Pressure Visibility Wind Dir Wind Speed Gust Speed Precip Events Conditions
12:15 AM 55.4 °F - 33.8 °F 44% 29.59 in 10.0 mi West 11.5 mph - N/A   Scattered Clouds
12:35 AM 57.2 °F - 35.6 °F 44% 29.59 in 10.0 mi West 11.5 mph - N/A   Partly Cloudy
12:55 AM 57.2 °F - 35.6 °F 44% 29.59 in 10.0 mi West 9.2 mph - N/A   Scattered Clouds
1:15 AM 57.2 °F - 35.6 °F 44% 29.59 in 10.0 mi West 9.2 mph - N/A   Mostly Cloudy
1:35 AM 57.2 °F - 37.4 °F 48% 29.58 in 10.0 mi West 8.1 mph - N/A Rain Light Rain
1:55 AM 55.4 °F - 37.4 °F 51% 29.58 in 10.0 mi West 5.8 mph - N/A   Mostly Cloudy
2:15 AM 53.6 °F - 39.2 °F 58% 29.58 in 10.0 mi SW 4.6 mph - N/A   Mostly Cloudy
2:35 AM 53.6 °F - 39.2 °F 58% 29.58 in 10.0 mi SW 5.8 mph - N/A   Mostly Cloudy
2:55 AM 51.8 °F - 39.2 °F 62% 29.58 in 10.0 mi Calm Calm - N/A   Scattered Clouds
3:15 AM 50.0 °F - 39.2 °F 66% 29.57 in 10.0 mi WSW 4.6 mph - N/A   Partly Cloudy
3:35 AM 48.2 °F - 39.2 °F 71% 29.57 in 10.0 mi WSW 3.5 mph - N/A   Clear
3:55 AM 46.4 °F - 39.2 °F 76% 29.56 in 10.0 mi Calm Calm - N/A   Clear
4:15 AM 44.6 °F - 39.2 °F 81% 29.56 in 10.0 mi Calm Calm - N/A   Clear
4:35 AM 44.6 °F 42.2 °F 39.2 °F 81% 29.57 in 10.0 mi SW 4.6 mph - N/A   Clear
4:55 AM 44.6 °F 43.1 °F 39.2 °F 81% 29.57 in 10.0 mi WSW 3.5 mph - N/A   Clear
5:15 AM 41.0 °F 39.0 °F 37.4 °F 87% 29.56 in 10.0 mi SW 3.5 mph - N/A   Clear
5:35 AM 41.0 °F 39.0 °F 37.4 °F 87% 29.56 in 10.0 mi SW 3.5 mph - N/A   Clear
5:55 AM 41.0 °F 36.4 °F 37.4 °F 87% 29.56 in 10.0 mi SW 6.9 mph - N/A   Clear
6:15 AM 41.0 °F 39.0 °F 37.4 °F 87% 29.55 in 10.0 mi SW 3.5 mph - N/A   Clear
6:35 AM 39.2 °F 37.0 °F 37.4 °F 93% 29.54 in 10.0 mi SW 3.5 mph - N/A   Clear
6:55 AM 41.0 °F 39.0 °F 37.4 °F 87% 29.54 in 10.0 mi SW 3.5 mph - N/A   Clear
7:15 AM 39.2 °F - 37.4 °F 93% 29.54 in 10.0 mi Calm Calm - N/A   Clear
7:35 AM 39.2 °F - 37.4 °F 93% 29.54 in 10.0 mi Calm Calm - N/A   Clear
7:55 AM 39.2 °F - 37.4 °F 93% 29.54 in 10.0 mi Calm Calm - N/A   Clear
8:15 AM 39.2 °F 35.0 °F 37.4 °F 93% 29.53 in 10.0 mi SSW 5.8 mph - N/A   Clear
8:35 AM 41.0 °F 37.1 °F 37.4 °F 87% 29.52 in 10.0 mi SW 5.8 mph - N/A   Partly Cloudy
8:55 AM 42.8 °F 40.1 °F 39.2 °F 87% 29.52 in 10.0 mi SW 4.6 mph - N/A   Mostly Cloudy
9:15 AM 44.6 °F - 42.8 °F 93% 29.52 in 10.0 mi Calm Calm - N/A   Mostly Cloudy
9:35 AM 50.0 °F - 42.8 °F 76% 29.52 in 10.0 mi SSW 6.9 mph - N/A   Scattered Clouds
9:55 AM 51.8 °F - 41.0 °F 67% 29.52 in 10.0 mi South 5.8 mph - N/A   Mostly Cloudy
10:15 AM 53.6 °F - 41.0 °F 62% 29.51 in 10.0 mi South 6.9 mph - N/A   Overcast
10:35 AM 55.4 °F - 41.0 °F 58% 29.51 in 10.0 mi SSW 8.1 mph - N/A   Mostly Cloudy
10:55 AM 55.4 °F - 39.2 °F 54% 29.51 in 10.0 mi SSW 9.2 mph - N/A   Mostly Cloudy
11:15 AM 57.2 °F - 39.2 °F 51% 29.51 in 10.0 mi SSW 5.8 mph - N/A   Mostly Cloudy
11:35 AM 57.2 °F - 39.2 °F 51% 29.51 in 10.0 mi SSW 5.8 mph - N/A   Mostly Cloudy
11:55 AM 59.0 °F - 39.2 °F 48% 29.50 in 10.0 mi SSW 5.8 mph - N/A   Mostly Cloudy
12:15 PM 60.8 °F - 39.2 °F 45% 29.49 in 10.0 mi SSW 8.1 mph - N/A   Partly Cloudy
12:35 PM 62.6 °F - 39.2 °F 42% 29.48 in 10.0 mi SSW 9.2 mph - N/A   Clear
12:55 PM 66.2 °F - 39.2 °F 37% 29.47 in 10.0 mi South 10.4 mph - N/A   Clear
1:15 PM 66.2 °F - 39.2 °F 37% 29.45 in 10.0 mi South 12.7 mph 16.1 mph N/A   Clear
1:35 PM 68.0 °F - 39.2 °F 35% 29.45 in 10.0 mi South 12.7 mph 17.3 mph N/A   Clear
1:55 PM 69.8 °F - 39.2 °F 33% 29.44 in 10.0 mi SSW 12.7 mph - N/A   Clear
2:15 PM 71.6 °F - 39.2 °F 31% 29.42 in 10.0 mi SW 12.7 mph 18.4 mph N/A   Clear
2:35 PM 73.4 °F - 39.2 °F 29% 29.42 in 10.0 mi WSW 11.5 mph 18.4 mph N/A   Clear
2:55 PM 73.4 °F - 41.0 °F 31% 29.41 in 10.0 mi SW 10.4 mph 17.3 mph N/A   Clear
3:15 PM 73.4 °F - 41.0 °F 31% 29.41 in 10.0 mi WSW 15.0 mph 25.3 mph N/A   Clear
3:35 PM 75.2 °F - 41.0 °F 29% 29.41 in 10.0 mi WSW 18.4 mph 23.0 mph N/A   Clear
3:55 PM 75.2 °F - 41.0 °F 29% 29.41 in 10.0 mi West 13.8 mph - N/A   Partly Cloudy
4:15 PM 73.4 °F - 39.2 °F 29% 29.42 in 10.0 mi WNW 16.1 mph 23.0 mph N/A   Clear
4:35 PM 69.8 °F - 41.0 °F 35% 29.43 in 10.0 mi West 11.5 mph 20.7 mph N/A   Scattered Clouds
4:55 PM 64.4 °F - 44.6 °F 49% 29.46 in 2.5 mi West 32.2 mph 42.6 mph N/A   Haze
5:15 PM 62.6 °F - 44.6 °F 52% 29.49 in 7.0 mi WNW 32.2 mph 42.6 mph N/A   Overcast
5:35 PM 55.4 °F - 48.2 °F 77% 29.52 in 9.0 mi West 17.3 mph 35.7 mph N/A Rain Light Rain
5:55 PM 53.6 °F - 46.4 °F 77% 29.53 in 9.0 mi WNW 19.6 mph 27.6 mph 0.01 in Rain Light Rain
6:15 PM 53.6 °F - 46.4 °F 77% 29.55 in 10.0 mi West 17.3 mph 27.6 mph N/A Rain Light Rain
6:35 PM 53.6 °F - 44.6 °F 72% 29.56 in 10.0 mi West 9.2 mph - N/A Rain Light Rain
6:55 PM 53.6 °F - 46.4 °F 77% 29.56 in 10.0 mi SSW 9.2 mph - N/A   Mostly Cloudy
7:15 PM 53.6 °F - 44.6 °F 72% 29.54 in 10.0 mi South 8.1 mph - N/A   Scattered Clouds
7:35 PM 53.6 °F - 44.6 °F 72% 29.54 in 10.0 mi SW 9.2 mph - N/A   Clear
7:55 PM 53.6 °F - 42.8 °F 67% 29.55 in 10.0 mi SW 9.2 mph - N/A   Partly Cloudy
8:15 PM 53.6 °F - 44.6 °F 72% 29.53 in 10.0 mi WSW 8.1 mph - N/A   Clear
8:35 PM 51.8 °F - 42.8 °F 71% 29.55 in 10.0 mi SW 12.7 mph 16.1 mph N/A   Clear
8:55 PM 51.8 °F - 42.8 °F 71% 29.56 in 10.0 mi WSW 12.7 mph - N/A   Clear
9:15 PM 50.0 °F - 42.8 °F 76% 29.57 in 10.0 mi WSW 11.5 mph - N/A   Clear
9:35 PM 50.0 °F - 41.0 °F 71% 29.59 in 10.0 mi SW 11.5 mph - N/A   Clear
9:55 PM 48.2 °F - 41.0 °F 76% 29.59 in 10.0 mi WSW 9.2 mph - N/A   Clear
10:15 PM 48.2 °F - 41.0 °F 76% 29.59 in 10.0 mi SW 8.1 mph - N/A   Clear
10:35 PM 46.4 °F 41.1 °F 39.2 °F 76% 29.59 in 10.0 mi SW 11.5 mph 17.3 mph N/A   Clear
10:55 PM 46.4 °F 43.5 °F 39.2 °F 76% 29.61 in 10.0 mi WSW 5.8 mph - N/A   Clear
11:15 PM 44.6 °F 39.7 °F 37.4 °F 76% 29.61 in 10.0 mi SW 9.2 mph - N/A   Clear
11:35 PM 44.6 °F 40.2 °F 37.4 °F 76% 29.62 in 10.0 mi WSW 8.1 mph - N/A   Clear
11:55 PM 44.6 °F 39.7 °F 37.4 °F 76% 29.62 in 10.0 mi SW 9.2 mph - N/A   Clear